Weather in Leszno

Poland     51°50′35″N   16°34′33″E
temp.,
°C
wind,
m/s
gust,
m/s
humid.,
%
clouds,
%
prec.,
mm/h
press.,
hPa
HPBL,
m
18 may, wed
wed1823:00+11e5126321 0.0 1024331
02:00+7e5125931 0.0 1026289
05:00+4ese386857 0.0 1028161
08:00+9se4655100 0.0 1029336
11:00+14se453899 0.0 1029737
14:00+17se4432100 0.0 10281033
17:00+18sse443633 0.0 1027949
20:00+13sse34605 0.0 102656
19 may, thu
thu1923:00+9sse46595 0.0 102768
02:00+8sse47629 0.0 1026101
05:00+8sse357148 0.0 102564
08:00+14s235923 0.0 1025170
11:00+20sse3349100 0.0 1024521
14:00+24s3441100 0.0 10231093
17:00+24s444355 0.0 10211189
20:00+18s3670100 0.0 102089
20 may, fri
fri2023:00+15ssw3374100 0.0 102021
02:00+15ssw3362100 0.0 102034
05:00+14sw3570100 0.0 102081
08:00+18w477597 0.0 1021299
11:00+24wnw456142 0.0 10211064
14:00+24wnw3566100 0.6 1019720
17:00+23nnw2473100 0.5 1019199
20:00+20se1180100 0.8 101811
21 may, sat
sat2123:00+17ssw2294100 1.7 101626
02:00+17sse61292100 3.1 1012312
05:00+16s3893100 3.3 1010302
08:00+20w10158699 4.6 10091172
11:00+16wnw11166911 0.2 10131384
14:00+17w10146558 0.4 10141746
17:00+18w9155713 0.4 10141943
20:00+15w9167310 0.7 10141209
22 may, sun
sun2223:00+13wnw8157130 0.1 10151200
02:00+12wnw8147359 0.1 1016941
05:00+12wnw71270100 0.0 10161282
08:00+13wnw8117251 0.1 10171169
11:00+14wnw71061100 0.0 10181540
14:00+16wnw7954100 0.1 10171789
17:00+17nnw575615 0.0 10171136
20:00+14nne22715 0.0 101750